FW6981 Weather Reports


time (UTC)temp
C
wind
direction
speed
KPH
gust
KPH
rain 1hr
cm
rain 24hr
cm
rain mn
cm
humidity
%
barometer
mb
20260504044532 7 360 0.0 3.2 0.00 0.00 0.00 75 1018.4
20260504043037 6 194 1.6 3.2 0.00 0.00 0.00 81 1018.3
20260504041540 6 0 0.0 3.2 0.00 0.00 0.00 82 1018.2
20260504040100 7 0 0.0 3.2 0.00 0.00 0.00 77 1018.4
20260504034537 7 0 0.0 4.8 0.00 0.00 0.00 75 1018.4
20260504033036 8 0 0.0 1.6 0.00 0.00 0.00 74 1018.5
20260504031537 8 0 0.0 1.6 0.00 0.00 0.00 71 1018.4
20260504030041 8 0 0.0 1.6 0.00 0.00 0.00 73 1018.4
20260504024539 9 0 0.0 1.6 0.00 0.00 0.00 71 1018.4
20260504023037 9 0 0.0 0.0 0.00 0.00 0.00 70 1018.2
20260504021540 10 0 0.0 0.0 0.00 0.00 0.00 69 1018.0
20260504020040 10 0 0.0 3.2 0.00 0.00 0.00 67 1017.7
20260504014551 10 0 0.0 3.2 0.00 0.00 0.00 66 1017.5
20260504013042 10 0 0.0 3.2 0.00 0.00 0.00 63 1017.5
20260504011540 10 0 0.0 0.0 0.00 0.00 0.00 66 1017.4
20260504010037 11 0 0.0 0.0 0.00 0.00 0.00 62 1017.2
20260504004550 11 0 0.0 0.0 0.00 0.00 0.00 61 1017.1
20260504003036 12 0 0.0 1.6 0.00 0.00 0.00 61 1017.2
20260504001539 13 0 0.0 1.6 0.00 0.00 0.00 52 1016.8
20260504000042 15 0 0.0 3.2 0.00 0.00 0.00 53 1016.8
20260503234540 15 0 0.0 3.2 0.00 0.00 0.00 48 1016.6
20260503233040 16 188 0.0 4.8 0.00 0.00 0.00 42 1016.8
20260503231535 17 61 1.6 6.4 0.00 0.00 0.00 33 1016.8
20260503230036 18 279 3.2 16.1 0.00 0.00 0.00 33 1016.8
20260503224537 18 153 1.6 11.3 0.00 0.00 0.00 35 1016.9
20260503223041 18 219 3.2 22.5 0.00 0.00 0.00 40 1016.8
20260503221536 19 0 1.6 11.3 0.00 0.00 0.00 36 1017.2
20260503220036 19 142 4.8 14.5 0.00 0.00 0.00 31 1017.2
20260503214535 19 221 6.4 14.5 0.00 0.00 0.00 36 1017.3
20260503213035 19 145 6.4 19.3 0.00 0.00 0.00 34 1017.4
20260503211541 19 237 3.2 19.3 0.00 0.00 0.00 34 1017.5
20260503210037 19 0 4.8 12.9 0.00 0.00 0.00 36 1017.6
20260503204542 19 276 4.8 22.5 0.00 0.00 0.00 35 1017.7
20260503203036 19 184 6.4 17.7 0.00 0.00 0.00 35 1018.1
20260503201538 18 234 4.8 19.3 0.00 0.00 0.00 35 1018.3
20260503200042 19 215 6.4 20.9 0.00 0.00 0.00 34 1018.5
20260503194542 19 53 6.4 20.9 0.00 0.00 0.00 33 1018.5
20260503193045 19 272 6.4 19.3 0.00 0.00 0.00 34 1018.9
20260503191539 18 242 3.2 17.7 0.00 0.00 0.00 34 1019.2
20260503190042 18 148 3.2 14.5 0.00 0.00 0.00 33 1019.4
20260503184537 18 257 4.8 12.9 0.00 0.00 0.00 34 1019.5
20260503183052 18 284 3.2 12.9 0.00 0.00 0.00 37 1019.7
20260503181607 17 185 6.4 22.5 0.00 0.00 0.00 35 1019.7
20260503180041 17 165 6.4 17.7 0.00 0.00 0.00 37 1019.9
20260503174542 17 131 3.2 11.3 0.00 0.00 0.00 35 1020.1
20260503173035 17 153 1.6 12.9 0.00 0.00 0.00 35 1020.2
20260503171547 16 210 4.8 11.3 0.00 0.00 0.00 36 1020.4
20260503081538 2 0 0.0 0.0 0.00 0.00 0.00 90 1018.0
20260503071540 3 0 0.0 1.6 0.00 0.00 0.00 90 1017.9
20260503054543 3 0 0.0 0.0 0.00 0.00 0.00 89 1017.7
20260503053036 3 0 0.0 0.0 0.00 0.00 0.00 89 1017.7